• In Russia
  • List of Countries
  • For 7 days
  • Water Temperature
  • Satellite Maps
  • Weather Map
  • Weather Widgets
  • user-avatar
    Login

    Hourly Weather Adelaide

    Today, 30 April, Sunday

    Time Temperature Precipitation Wind Pressure Humidity
    00:00 +13°C° 0 mm 1 mps 763 mmHg 91%
    01:00 +13°C° 0 mm 1 mps 763 mmHg 91%
    02:00 +13°C° 0 mm 1 mps 763 mmHg 91%
    03:00 +13°C° 0 mm 1 mps 763 mmHg 90%
    04:00 +13°C° 0 mm 1 mps 763 mmHg 90%
    05:00 +13°C° 0 mm 1 mps 763 mmHg 90%
    06:00 +13°C° 0 mm 1 mps 763 mmHg 90%
    07:00 +15°C° 0 mm 1 mps 763 mmHg 82%
    08:00 +18°C° 0 mm 1 mps 763 mmHg 74%
    09:00 +18°C° 0 mm 3 mps 762 mmHg 64%
    10:00 +19°C° 0 mm 2 mps 762 mmHg 60%
    11:00 +20°C° 0 mm 2 mps 761 mmHg 56%
    12:00 +20°C° 0 mm 2 mps 761 mmHg 52%
    13:00 +20°C° 0 mm 2 mps 760 mmHg 52%
    14:00 +20°C° 0 mm 2 mps 760 mmHg 51%
    15:00 +19°C° 0 mm 2 mps 760 mmHg 53%
    16:00 +18°C° 0 mm 2 mps 760 mmHg 58%
    17:00 +17°C° 0 mm 2 mps 759 mmHg 63%
    18:00 +16°C° 0 mm 1 mps 759 mmHg 68%
    19:00 +15°C° 0 mm 1 mps 759 mmHg 72%
    20:00 +15°C° 0 mm 2 mps 759 mmHg 75%
    21:00 +15°C° 0 mm 2 mps 759 mmHg 73%
    22:00 +15°C° 0 mm 2 mps 759 mmHg 75%
    23:00 +15°C° 0 mm 2 mps 759 mmHg 76%

    Tomorrow, 1 May, Monday

    Time Temperature Precipitation Wind Pressure Humidity
    00:00 +15°C° 0 mm 2 mps 758 mmHg 78%
    01:00 +14°C° 0 mm 3 mps 758 mmHg 79%
    02:00 +13°C° 0 mm 3 mps 758 mmHg 80%
    03:00 +13°C° 0 mm 3 mps 758 mmHg 81%
    04:00 +13°C° 0 mm 3 mps 758 mmHg 82%
    05:00 +13°C° 0 mm 3 mps 758 mmHg 83%
    06:00 +13°C° 0 mm 3 mps 758 mmHg 83%
    07:00 +15°C° 0 mm 4 mps 758 mmHg 78%
    08:00 +17°C° 0 mm 4 mps 758 mmHg 74%
    09:00 +18°C° 0 mm 4 mps 759 mmHg 69%
    10:00 +18°C° 0.3 mm 4 mps 758 mmHg 71%
    11:00 +18°C° 0.3 mm 4 mps 758 mmHg 73%
    12:00 +18°C° 0.3 mm 4 mps 758 mmHg 76%
    13:00 +18°C° 0.3 mm 4 mps 759 mmHg 77%
    14:00 +17°C° 0.3 mm 4 mps 759 mmHg 79%
    15:00 +15°C° 0.3 mm 4 mps 759 mmHg 81%
    16:00 +15°C° 0 mm 4 mps 759 mmHg 79%
    17:00 +16°C° 0 mm 3 mps 760 mmHg 78%
    18:00 +14°C° 0 mm 3 mps 760 mmHg 76%
    19:00 +14°C° 0 mm 3 mps 761 mmHg 75%
    20:00 +14°C° 0 mm 3 mps 761 mmHg 75%
    21:00 +13°C° 0 mm 3 mps 762 mmHg 74%
    22:00 +13°C° 0 mm 3 mps 762 mmHg 75%
    23:00 +13°C° 0 mm 3 mps 762 mmHg 76%

    Day after tomorrow, 2 May, Tuesday

    Time Temperature Precipitation Wind Pressure Humidity
    00:00 +13°C° 0 mm 3 mps 762 mmHg 77%
    01:00 +13°C° 0 mm 3 mps 762 mmHg 77%
    02:00 +12°C° 0 mm 3 mps 762 mmHg 76%
    03:00 +12°C° 0 mm 3 mps 763 mmHg 75%
    04:00 +12°C° 0 mm 3 mps 763 mmHg 75%
    05:00 +12°C° 0 mm 3 mps 763 mmHg 74%
    06:00 +12°C° 0 mm 3 mps 763 mmHg 73%
    07:00 +13°C° 0 mm 3 mps 764 mmHg 69%
    08:00 +13°C° 0 mm 3 mps 765 mmHg 65%
    09:00 +14°C° 0 mm 3 mps 765 mmHg 61%
    10:00 +14°C° 0.1 mm 3 mps 765 mmHg 60%
    11:00 +14°C° 0.1 mm 3 mps 765 mmHg 60%
    12:00 +14°C° 0.1 mm 3 mps 765 mmHg 59%
    13:00 +16°C° 0.1 mm 3 mps 765 mmHg 57%
    14:00 +16°C° 0.1 mm 3 mps 765 mmHg 54%
    15:00 +16°C° 0.1 mm 3 mps 765 mmHg 52%
    16:00 +14°C° 0 mm 3 mps 765 mmHg 57%
    17:00 +13°C° 0 mm 3 mps 766 mmHg 62%
    18:00 +13°C° 0 mm 2 mps 766 mmHg 67%
    19:00 +13°C° 0 mm 2 mps 766 mmHg 69%
    20:00 +13°C° 0 mm 2 mps 767 mmHg 72%
    21:00 +13°C° 0 mm 2 mps 767 mmHg 74%
    22:00 +12°C° 0 mm 2 mps 767 mmHg 77%
    23:00 +12°C° 0 mm 2 mps 767 mmHg 80%

    3 May, Wednesday

    Time Temperature Precipitation Wind Pressure Humidity
    00:00 +12°C° 0 mm 2 mps 767 mmHg 83%
    01:00 +12°C° 0 mm 2 mps 767 mmHg 82%
    02:00 +11°C° 0 mm 3 mps 767 mmHg 81%
    03:00 +11°C° 0 mm 3 mps 768 mmHg 80%
    04:00 +11°C° 0 mm 3 mps 768 mmHg 81%
    05:00 +12°C° 0 mm 2 mps 768 mmHg 82%
    06:00 +10°C° 0 mm 2 mps 769 mmHg 83%
    07:00 +11°C° 0 mm 3 mps 769 mmHg 78%
    08:00 +12°C° 0 mm 3 mps 769 mmHg 72%
    09:00 +13°C° 0 mm 3 mps 770 mmHg 66%
    10:00 +14°C° 0 mm 3 mps 770 mmHg 61%
    11:00 +16°C° 0 mm 2 mps 769 mmHg 55%
    12:00 +17°C° 0 mm 2 mps 769 mmHg 49%
    13:00 +17°C° 0 mm 2 mps 769 mmHg 48%
    14:00 +17°C° 0 mm 2 mps 769 mmHg 47%
    15:00 +17°C° 0 mm 2 mps 768 mmHg 47%
    16:00 +15°C° 0 mm 2 mps 768 mmHg 52%
    17:00 +14°C° 0 mm 2 mps 769 mmHg 57%
    18:00 +12°C° 0 mm 2 mps 769 mmHg 62%
    19:00 +12°C° 0 mm 2 mps 769 mmHg 65%
    20:00 +10°C° 0 mm 2 mps 769 mmHg 68%
    21:00 +10°C° 0 mm 2 mps 770 mmHg 70%
    22:00 +10°C° 0 mm 2 mps 770 mmHg 70%
    23:00 +10°C° 0 mm 2 mps 770 mmHg 71%

    4 May, Thursday

    Time Temperature Precipitation Wind Pressure Humidity
    00:00 +9°C° 0 mm 2 mps 769 mmHg 71%
    01:00 +9°C° 0 mm 2 mps 769 mmHg 72%
    02:00 +9°C° 0 mm 2 mps 769 mmHg 73%
    03:00 +8°C° 0 mm 2 mps 769 mmHg 74%
    04:00 +8°C° 0 mm 2 mps 769 mmHg 75%
    05:00 +8°C° 0 mm 2 mps 769 mmHg 75%
    06:00 +8°C° 0 mm 2 mps 770 mmHg 75%
    07:00 +9°C° 0 mm 2 mps 770 mmHg 68%
    08:00 +12°C° 0 mm 2 mps 770 mmHg 61%
    09:00 +14°C° 0 mm 2 mps 770 mmHg 53%
    10:00 +15°C° 0 mm 2 mps 770 mmHg 48%
    11:00 +17°C° 0 mm 2 mps 769 mmHg 43%
    12:00 +19°C° 0 mm 1 mps 769 mmHg 38%
    13:00 +19°C° 0 mm 1 mps 768 mmHg 37%
    14:00 +19°C° 0 mm 1 mps 768 mmHg 37%
    15:00 +19°C° 0 mm 1 mps 767 mmHg 36%
    16:00 +16°C° 0 mm 1 mps 768 mmHg 43%
    17:00 +14°C° 0 mm 1 mps 768 mmHg 50%
    18:00 +12°C° 0 mm 1 mps 768 mmHg 56%
    19:00 +12°C° 0 mm 2 mps 768 mmHg 56%
    20:00 +12°C° 0 mm 2 mps 768 mmHg 56%
    21:00 +12°C° 0 mm 2 mps 768 mmHg 56%
    22:00 +12°C° 0 mm 2 mps 768 mmHg 57%
    23:00 +10°C° 0 mm 2 mps 768 mmHg 58%

    5 May, Friday

    Time Temperature Precipitation Wind Pressure Humidity
    00:00 +10°C° 0 mm 2 mps 768 mmHg 58%
    01:00 +10°C° 0 mm 2 mps 767 mmHg 58%
    02:00 +10°C° 0 mm 2 mps 767 mmHg 57%
    03:00 +10°C° 0 mm 2 mps 767 mmHg 57%
    04:00 +10°C° 0 mm 2 mps 767 mmHg 57%
    05:00 +10°C° 0 mm 2 mps 767 mmHg 57%
    06:00 +10°C° 0 mm 2 mps 767 mmHg 56%
    07:00 +13°C° 0 mm 2 mps 767 mmHg 52%
    08:00 +14°C° 0 mm 2 mps 768 mmHg 48%
    09:00 +16°C° 0 mm 2 mps 768 mmHg 44%
    10:00 +17°C° 0 mm 2 mps 767 mmHg 41%
    11:00 +18°C° 0 mm 2 mps 766 mmHg 37%
    12:00 +20°C° 0 mm 2 mps 766 mmHg 33%
    13:00 +20°C° 0 mm 2 mps 765 mmHg 33%
    14:00 +20°C° 0 mm 2 mps 765 mmHg 32%
    15:00 +20°C° 0 mm 2 mps 765 mmHg 32%
    16:00 +18°C° 0 mm 2 mps 765 mmHg 37%
    17:00 +17°C° 0 mm 2 mps 765 mmHg 41%
    18:00 +15°C° 0 mm 2 mps 765 mmHg 46%
    19:00 +15°C° 0 mm 2 mps 765 mmHg 47%
    20:00 +15°C° 0 mm 2 mps 765 mmHg 48%
    21:00 +14°C° 0 mm 2 mps 765 mmHg 48%
    22:00 +13°C° 0 mm 3 mps 765 mmHg 48%
    23:00 +13°C° 0 mm 3 mps 764 mmHg 48%
    Show more